This demonstration page uses our WeatherBlox Daily Observations layout. Learn more.

Left ArrowRight Arrow

Hourly Observations for January 26, 2022

Temp ( °F °C ) Dew Point ( °F °C ) Humidity (%) Winds ( mph kmh ) Pressure ( in mb ) Visibility ( mi km ) Precip ( " mm )
12:53 am 00:53 Clear 38 3.3 30 -1.1 73 73 NNW 7 11 30.12 1020 10 16 0.00 0.00
1:53 am 01:53 Clear 36 2.2 28 -2.2 73 73 NW 8 13 30.14 1021 10 16 0.00 0.00
2:53 am 02:53 Clear 34 1.1 26 -3.3 73 73 NW 8 13 30.15 1021 10 16 0.00 0.00
3:53 am 03:53 Clear 32 0 26 -3.3 79 79 NNW 7 11 30.17 1022 10 16 0.00 0.00
4:53 am 04:53 Clear 31 -0.6 24 -4.4 76 76 VRB 3 6 30.18 1022 10 16 0.00 0.00
5:53 am 05:53 Clear 31 -0.6 24 -4.4 76 76 NNW 5 7 30.19 1023 10 16 0.00 0.00
6:53 am 06:53 Clear 30 -1.1 23 -5 75 75 NW 7 11 30.22 1024 10 16 0.00 0.00
7:53 am 07:53 Sunny 30 -1.1 22 -5.6 72 72 N 8 13 30.25 1024 10 16 0.00 0.00
8:53 am 08:53 Sunny 32 0 22 -5.6 66 66 NNW 7 11 30.28 1025 10 16 0.00 0.00
9:53 am 09:53 Sunny 35 1.7 21 -6.1 57 57 NW 8 13 30.29 1026 10 16 0.00 0.00
10:53 am 10:53 Sunny 40 4.4 19 -7.2 43 43 NNE 7 11 30.30 1026 10 16 0.00 0.00
11:53 am 11:53 Sunny 44 6.7 19 -7.2 37 37 N 7 11 30.29 1026 10 16 0.00 0.00
12:53 pm 12:53 Sunny 46 7.8 20 -6.7 35 35 NW 9 15 30.26 1025 10 16 0.00 0.00
1:53 pm 13:53 Sunny 49 9.4 21 -6.1 33 33 NNW 9 15 30.23 1024 10 16 0.00 0.00
2:53 pm 14:53 Sunny 50 10 18 -7.8 28 28 NW 8 13 30.22 1024 10 16 0.00 0.00
3:53 pm 15:53 Sunny 49 9.4 18 -7.8 29 29 NW 8 13 30.22 1023 10 16 0.00 0.00
4:53 pm 16:53 Sunny 49 9.4 16 -8.9 27 27 N 8 13 30.23 1024 10 16 0.00 0.00
5:53 pm 17:53 Sunny 45 7.2 16 -8.9 31 31 NNW 6 9 30.25 1024 10 16 0.00 0.00
6:53 pm 18:53 Clear 41 5 11 -11.7 29 29 NNW 7 11 30.27 1025 10 16 0.00 0.00
7:53 pm 19:53 Clear 39 3.9 11 -11.7 31 31 N 7 11 30.29 1026 10 16 0.00 0.00
8:53 pm 20:53 Clear 38 3.3 11 -11.7 33 33 N 5 7 30.29 1026 10 16 0.00 0.00
9:53 pm 21:53 Clear 36 2.2 11 -11.7 35 35 N 3 6 30.31 1026 10 16 0.00 0.00
10:53 pm 22:53 Clear 35 1.7 13 -10.6 40 40 Calm 30.31 1026 10 16 0.00 0.00
11:53 pm 23:53 Clear 31 -0.6 15 -9.4 52 52 Calm 30.30 1026 10 16 0.00 0.00

Powered by AerisWeather